{"data":{"norad_id":62171,"epoch":"2026-09-21T17:31:39.959040Z","epoch_age_seconds":75501,"freshness":"FRESH","line1":"1 62171U 24225J   26264.73032360 -.00005759  00000+0 -47515-3 0  9998","line2":"2 62171  70.0017  30.0234 0003538 266.6665  93.4089 14.98333948 99241","mean_motion":14.98333948,"eccentricity":0.0003538,"inclination_deg":70.0017,"raan_deg":30.0234,"arg_perigee_deg":266.6665,"mean_anomaly_deg":93.4089,"bstar":-0.00047515,"rev_number":9924,"period_min":96.106745890803,"perigee_km":569.58470818157,"apogee_km":574.50265603223,"semimajor_km":6950.1806821069,"source":"CELESTRAK","updated_at":"2026-09-22T09:00:49.535760Z"}}